Vorticity
11 10 9 9 10 10 10 10 11 11 11 10 10 9 9 9 8 9 9 9 9 8 8 7 7 7 7 7 7 7 7 6 7 7 8 8 8 8 8 8 8 8 8 7 7 8 8 8 7 7 7 7 7 6 7 6 7 8 8 9 10 11 13 15 11 6 9 10 9 10 9 9 9 8 8 7 8 7 8 8 7 7 6 7 6 4 3 2
12 12 11 10 9 9 9 9 9 9 9 9 9 9 8 8 8 8 8 8 8 8 7 7 7 7 7 7 8 8 7 8 8 8 8 8 8 8 8 8 7 8 8 7 6 7 7 7 7 6 7 7 7 7 7 7 8 8 9 10 9 11 13 13 10 6 9 10 9 10 9 9 9 8 9 9 7 6 7 7 7 7 3 3 5 5 3 2
11 12 13 12 11 10 9 8 8 8 8 8 8 8 8 8 7 8 8 8 8 8 8 8 8 8 8 8 8 8 8 8 8 8 7 7 8 7 7 7 7 7 7 7 6 6 6 7 7 7 7 8 8 8 8 9 9 9 10 10 8 11 12 12 11 7 8 10 10 10 10 9 9 8 9 10 9 6 6 6 5 5 3 1 1 2 0 -0
7 8 10 12 12 12 11 10 9 8 8 7 7 7 7 7 7 7 7 7 7 7 8 8 8 8 8 8 8 8 8 7 7 7 7 7 7 7 7 6 7 7 7 7 7 7 6 7 7 7 7 7 8 7 7 7 8 10 10 9 9 11 10 12 13 6 7 11 9 11 12 9 8 8 9 12 13 8 5 6 4 1 1 0 1 0 -1 -0
3 4 5 6 8 10 12 13 12 10 9 9 8 7 7 6 6 5 5 5 5 6 7 7 8 7 8 8 8 8 7 7 7 7 6 7 6 7 7 6 7 7 7 7 6 7 7 7 7 7 7 7 7 7 7 7 8 11 9 9 10 12 12 16 15 5 7 12 8 11 12 8 7 8 10 11 9 8 9 8 6 3 2 -0 -2 -1 1 4
2 2 2 3 3 4 6 9 11 12 11 10 9 9 8 7 7 6 5 5 6 6 7 7 7 7 8 8 8 8 7 7 7 7 6 6 6 7 7 7 7 7 8 7 7 8 7 8 7 8 7 7 8 7 8 7 10 12 9 10 10 13 16 18 15 5 10 13 6 11 11 6 7 9 9 6 5 8 9 7 7 7 5 2 1 2 3 3
3 2 2 2 2 2 2 3 5 8 10 11 10 10 9 9 9 8 8 7 7 7 7 7 7 7 7 7 7 6 6 6 6 6 6 6 6 6 7 7 7 7 7 7 7 8 7 8 7 7 7 7 8 8 9 8 12 13 10 11 11 16 16 13 14 7 11 11 4 11 10 5 9 9 8 7 8 7 4 5 5 5 4 2 2 2 2 2
4 5 5 4 4 3 2 2 2 3 5 8 9 10 10 10 9 9 9 9 8 8 8 7 7 7 7 6 7 6 6 6 6 7 6 6 6 5 6 6 6 6 6 6 6 6 7 7 7 8 8 8 9 9 10 10 13 12 10 12 13 17 13 14 20 10 9 9 6 11 7 5 8 8 8 7 9 7 5 5 3 3 3 2 3 2 2 1
6 7 8 8 7 6 5 4 3 2 2 3 6 7 9 9 9 9 8 8 8 8 7 7 6 7 7 6 7 6 6 6 6 6 6 6 5 5 5 5 5 4 4 5 5 6 6 7 8 8 9 10 10 9 9 9 11 10 10 12 13 16 16 22 24 10 9 9 8 10 4 4 8 8 8 6 6 6 7 8 7 7 6 6 5 3 2 3
6 8 10 11 11 10 8 7 6 5 3 2 2 4 6 7 8 9 9 8 7 7 7 7 7 7 7 6 6 6 6 6 7 7 6 6 6 5 5 4 3 3 4 4 5 6 6 7 8 8 9 9 9 9 8 8 9 9 10 12 13 14 17 27 23 10 10 11 10 8 2 5 8 7 9 7 6 5 6 6 8 7 8 8 4 5 4 3
5 7 9 11 12 12 11 9 8 8 6 4 2 2 3 4 6 8 9 9 8 8 8 7 8 7 8 7 6 7 8 7 7 7 6 6 6 5 4 3 3 4 4 5 6 6 7 8 7 8 9 8 9 8 8 8 9 11 12 14 14 12 16 25 21 12 10 11 12 6 2 5 8 9 8 8 8 7 6 4 5 5 5 5 4 9 7 4
5 6 8 10 11 13 12 12 10 10 10 8 6 3 2 3 4 6 7 7 8 9 9 8 9 8 8 9 6 6 8 7 7 7 6 6 5 5 4 4 3 4 4 5 6 6 7 8 8 11 10 9 10 8 8 9 9 10 11 12 13 13 16 21 20 15 11 13 14 8 5 5 8 12 9 8 8 8 8 6 5 5 4 6 8 11 9 6
4 6 7 9 11 12 13 13 12 11 11 10 10 7 5 3 2 4 4 5 5 7 8 8 9 8 9 10 7 7 9 7 8 8 7 7 7 7 6 5 5 5 5 6 7 8 9 8 10 12 9 9 10 8 8 9 9 9 10 11 11 12 14 16 18 15 11 13 14 11 9 4 3 8 9 8 8 7 10 9 8 8 7 8 8 7 6 4
4 5 6 8 10 12 12 13 12 11 11 10 11 10 9 7 5 5 4 4 5 5 7 6 8 8 9 11 6 6 11 9 8 9 8 9 8 7 6 5 5 5 5 5 6 7 8 8 10 11 9 9 9 7 9 10 9 8 8 10 11 10 10 11 15 14 11 13 13 10 12 8 -1 -1 6 8 7 5 6 8 8 8 8 7 3 3 7 4
3 4 6 7 9 11 12 13 13 12 12 10 10 10 11 10 9 9 8 7 7 7 7 6 8 6 7 11 6 3 8 10 10 8 7 9 8 7 8 7 7 6 5 5 4 5 7 8 10 10 9 9 8 8 9 8 8 8 8 10 12 12 11 10 11 12 11 13 15 11 11 13 5 -3 -2 2 5 4 2 4 6 7 8 8 8 7 14 13
3 4 5 7 8 10 11 11 11 12 12 11 10 10 11 10 10 11 10 10 9 9 9 7 9 7 6 11 9 5 5 6 9 8 7 8 8 7 8 9 9 8 7 7 6 6 7 8 9 9 9 9 8 9 10 8 7 8 9 11 13 13 14 11 10 9 9 12 14 13 11 13 13 5 -2 -4 -1 1 0 2 3 6 9 9 10 8 8 12
3 4 5 7 8 10 10 10 10 11 12 12 11 11 11 11 10 10 9 9 8 9 9 9 10 9 8 11 11 10 7 5 6 7 6 7 7 7 8 8 8 8 8 7 7 6 7 9 9 10 10 9 9 8 7 8 9 11 10 10 11 11 12 11 10 9 8 9 10 12 13 13 14 12 8 3 -1 -1 -3 -3 -3 -1 3 4 4 4 2 5
3 4 5 6 8 10 11 10 9 10 11 11 10 10 12 13 12 12 11 10 10 10 9 9 9 8 9 10 9 8 8 7 7 7 7 7 8 8 9 9 9 9 8 7 7 6 6 8 9 9 11 11 10 6 6 8 11 11 9 9 10 11 11 11 11 10 8 8 8 9 12 14 15 12 12 10 6 6 3 -2 -2 -5 -5 -2 -2 3 1 -7
4 5 5 6 8 9 11 10 9 9 9 10 8 9 12 14 14 12 12 11 11 11 10 10 10 9 10 11 10 9 9 9 9 10 9 9 9 8 8 9 10 11 10 10 8 7 7 8 9 12 14 11 6 5 9 12 10 8 6 7 9 9 10 10 9 10 10 8 8 7 8 10 14 13 12 11 10 10 9 5 3 -0 -3 -3 -1 3 -5 -15
4 5 6 8 8 9 11 11 9 8 9 9 7 8 11 13 13 11 10 11 10 10 10 11 11 10 11 11 10 10 10 10 11 11 10 10 10 10 11 10 11 11 11 9 7 8 7 8 13 14 11 6 5 7 12 12 9 7 6 5 6 7 9 9 8 8 9 9 8 7 7 7 10 13 13 11 10 10 11 10 8 7 6 4 3 -2 -11 -15
5 6 7 8 9 10 11 11 10 9 9 9 6 7 10 10 10 9 8 9 9 9 10 10 10 11 12 10 8 8 7 9 11 11 12 11 10 11 12 12 13 12 10 8 6 7 7 10 17 15 9 7 9 13 12 9 7 7 8 6 6 7 8 7 8 8 7 9 10 8 8 8 7 9 12 12 12 11 11 12 12 12 11 9 7 3 -1 -5
6 7 8 9 10 11 11 12 11 10 10 9 7 8 10 9 9 8 8 10 11 9 8 10 11 11 10 9 9 8 6 7 9 11 11 11 12 12 12 13 13 9 7 7 8 9 10 14 17 13 11 12 12 13 10 6 5 7 10 12 10 7 6 5 8 11 8 8 10 10 9 10 11 9 10 11 12 13 11 12 13 13 13 12 12 11 10 7
8 8 9 10 11 11 12 12 12 12 11 9 8 9 10 10 10 10 9 12 14 10 8 10 11 10 11 11 10 10 10 8 8 10 9 11 13 13 13 14 11 7 8 10 9 9 11 13 12 11 14 14 12 12 8 5 7 8 9 15 15 9 7 4 4 10 11 8 9 10 10 12 14 12 10 10 10 12 11 11 11 8 10 11 12 13 13 14
8 9 11 11 12 12 12 13 12 12 11 10 9 9 9 9 10 11 10 10 13 12 8 9 9 8 11 12 11 11 10 9 11 11 9 10 12 13 14 11 8 10 11 10 9 8 11 11 8 11 14 13 11 8 7 6 7 8 9 16 18 10 8 6 2 5 11 11 9 9 9 12 13 11 9 8 9 12 11 11 11 10 12 12 10 10 12 16
9 10 11 12 14 13 12 13 12 11 11 10 10 9 9 9 9 11 10 8 11 11 8 8 9 9 9 8 9 10 9 11 14 10 10 12 10 10 10 8 10 12 10 10 9 8 13 14 11 14 15 13 10 5 6 8 7 11 13 17 18 11 7 7 3 3 7 11 11 9 9 11 12 10 9 8 10 12 11 11 12 14 16 14 13 11 11 17
11 12 13 14 14 13 13 13 11 10 10 10 10 9 9 9 9 10 9 9 10 9 8 7 8 10 11 10 8 8 9 12 12 8 12 13 8 9 11 12 14 12 10 10 9 10 14 13 12 16 17 13 10 7 7 8 8 13 14 14 16 12 6 6 5 3 5 8 8 9 10 11 12 12 11 10 10 10 11 12 11 12 14 12 12 14 14 17
13 14 14 14 13 13 13 13 12 10 10 10 10 9 9 8 9 9 8 9 8 9 9 8 7 7 11 14 13 10 9 11 10 11 15 12 8 11 12 14 14 11 10 9 9 15 17 13 13 16 18 14 8 8 9 7 8 11 11 10 12 11 6 5 6 4 4 6 5 7 10 12 14 13 12 11 12 12 11 11 10 11 14 12 10 12 15 16
14 14 14 13 13 13 13 12 11 11 10 10 9 9 9 8 9 9 9 9 9 11 12 11 10 8 8 10 11 12 11 11 12 12 15 12 8 10 12 13 11 7 7 7 9 12 10 8 10 14 16 11 5 6 7 5 7 8 9 10 9 8 7 5 6 5 4 6 7 5 6 11 13 12 10 9 12 17 17 15 15 15 13 10 8 11 15 15
14 13 13 13 13 12 11 10 10 10 10 10 10 10 9 9 9 9 9 8 8 10 10 9 9 10 10 9 10 12 12 13 12 11 14 14 10 11 14 12 8 5 5 8 10 9 7 5 8 14 14 8 5 7 6 4 6 7 8 10 8 7 8 8 8 6 4 6 8 7 5 8 11 10 9 9 11 17 22 22 17 12 9 8 10 15 18 15
13 12 12 12 11 10 10 10 11 10 10 10 10 10 9 9 9 9 9 10 9 8 9 9 8 9 10 9 9 10 10 12 12 10 12 15 12 11 12 7 5 6 7 9 10 8 8 7 10 16 12 7 7 6 5 6 6 8 8 9 8 7 6 7 9 9 9 9 6 8 8 5 9 11 7 8 14 19 23 23 15 9 10 14 18 21 21 16
11 11 11 10 10 10 9 9 11 11 10 9 9 9 9 8 8 9 9 10 9 9 9 10 9 10 10 10 9 9 10 11 11 10 10 14 15 12 10 8 7 8 8 12 13 10 10 11 12 15 11 7 6 4 5 6 6 7 9 9 8 8 7 6 8 9 13 12 6 11 13 4 6 11 5 7 19 22 17 15 15 14 13 16 18 17 16 13
10 9 9 9 10 10 9 8 10 11 10 10 9 10 9 9 11 11 10 10 9 9 10 10 10 10 11 11 11 11 11 11 11 12 11 13 15 13 10 7 7 7 7 12 13 9 10 13 13 12 11 8 5 5 6 6 7 6 6 8 9 10 10 8 8 9 14 12 5 13 17 4 3 9 4 9 22 18 7 4 8 10 10 10 10 10 10 7
9 8 9 9 10 10 10 10 11 12 11 11 11 11 10 10 12 12 11 11 10 11 12 12 11 11 10 11 11 10 11 11 11 12 12 12 13 11 7 5 6 6 7 11 12 8 9 12 12 9 8 7 6 9 10 8 9 8 9 10 10 12 12 11 11 11 13 10 6 17 18 3 4 9 5 12 22 12 -0 2 5 6 8 8 4 6 8 3
9 9 10 11 12 12 11 11 11 11 11 11 10 10 11 11 12 11 10 10 10 10 12 12 11 11 11 11 11 9 9 10 10 10 11 12 13 12 9 6 6 5 6 9 10 8 8 9 12 10 5 5 6 9 11 10 8 7 8 6 6 8 9 10 11 10 12 10 9 17 14 4 8 11 6 13 21 9 -4 -0 7 6 3 2 3 6 10 6
11 11 12 12 12 12 11 10 10 10 10 10 10 10 10 10 10 9 9 9 9 9 10 10 11 11 11 10 10 9 9 9 9 10 11 13 14 14 12 9 9 9 10 11 9 9 10 10 12 11 6 6 8 8 7 8 9 9 7 4 6 9 9 9 9 8 11 10 10 16 14 8 10 10 7 12 19 15 3 -0 9 11 1 -2 2 3 8 11
11 12 12 11 11 10 10 10 10 11 11 10 11 11 11 10 9 10 10 10 11 11 10 9 10 11 11 11 10 8 9 9 9 10 11 13 15 15 14 11 10 11 11 12 11 9 10 12 13 11 8 6 7 9 8 7 8 8 7 7 10 9 7 8 9 9 11 10 10 17 20 16 10 6 7 10 12 16 13 7 10 13 6 2 2 1 4 10
10 10 10 10 10 10 10 11 11 12 12 12 12 12 11 11 11 12 11 11 11 11 11 10 10 10 10 12 12 10 8 8 8 9 10 10 12 14 16 14 11 11 10 8 8 7 7 11 13 12 10 7 5 7 8 7 5 4 4 7 10 8 5 6 7 8 10 12 14 18 23 22 11 4 6 10 9 10 11 10 12 13 8 6 4 1 -0 2
10 10 11 11 11 12 12 12 12 12 12 12 12 12 12 12 11 11 11 11 11 11 11 11 10 10 10 10 13 12 9 6 6 8 9 10 11 11 12 12 11 12 10 6 5 5 6 9 13 13 10 7 5 6 7 5 4 7 7 6 7 8 10 9 8 7 9 15 18 20 25 25 13 1 3 11 11 7 6 7 11 10 8 8 5 1 0 2
10 11 12 12 13 12 12 11 11 11 11 11 11 11 11 11 10 10 11 11 12 12 11 11 10 10 9 9 11 13 11 7 5 6 7 7 9 10 9 9 9 8 7 8 8 8 7 7 11 13 10 7 6 6 7 4 4 8 8 7 5 4 5 6 7 7 6 9 12 16 23 27 21 5 -1 7 10 6 3 2 5 6 5 6 3 3 4 3
11 11 12 12 11 11 10 10 9 9 10 10 10 10 10 11 11 11 11 11 10 11 10 11 11 10 9 8 9 11 13 11 7 5 5 4 4 8 10 11 11 7 4 5 7 8 9 9 10 10 9 8 6 5 6 4 4 5 6 8 9 7 5 3 5 7 6 6 7 8 13 21 26 15 2 3 6 6 4 -0 2 4 4 6 2 0 -0 -1
11 10 10 9 9 10 10 10 10 10 11 11 11 11 11 11 10 10 11 10 10 10 10 10 10 10 11 9 7 7 10 13 11 8 6 4 3 5 8 10 12 10 6 4 5 7 10 12 13 11 9 8 5 4 5 4 3 3 5 10 12 10 8 5 6 7 4 6 7 6 7 12 21 21 12 7 5 4 3 1 4 5 5 7 1 -3 -3 -2
10 9 9 9 10 10 10 11 12 11 11 10 9 9 8 8 9 10 10 10 10 11 11 10 10 10 10 10 9 6 5 8 11 11 10 7 4 3 4 6 10 12 10 8 6 7 8 11 14 13 10 8 6 4 4 4 4 3 4 8 10 8 7 4 5 7 4 4 5 6 7 7 10 15 15 15 12 8 4 2 4 4 5 7 3 7 12 12
9 9 10 10 10 11 12 12 11 9 7 7 8 8 9 9 8 9 11 11 12 12 12 11 11 11 10 10 11 8 6 7 8 10 11 10 6 4 4 6 8 10 11 11 8 7 8 9 12 14 13 11 8 7 6 6 7 7 4 4 3 5 9 6 3 4 4 3 3 4 6 7 9 9 10 13 14 13 12 11 9 7 8 12 12 16 21 22
10 11 10 11 11 11 11 9 7 6 6 8 9 9 10 10 9 10 12 14 17 18 17 15 12 11 10 10 11 11 8 7 6 6 7 8 8 8 7 9 9 7 8 10 8 8 9 8 8 12 13 13 10 7 8 8 8 9 7 4 -0 0 5 7 6 5 4 3 3 2 4 7 9 9 9 11 12 11 12 14 16 16 14 16 16 12 15 26
11 12 11 11 11 9 8 7 7 7 8 8 8 8 11 11 10 11 14 15 18 19 21 22 21 18 14 9 10 11 10 8 6 4 4 6 10 11 9 8 8 7 8 10 11 10 9 8 9 10 11 12 13 10 8 8 9 8 7 6 4 3 3 3 6 7 7 6 4 3 4 4 5 5 6 12 17 18 15 11 10 12 11 14 17 14 14 17
11 11 10 9 10 9 8 8 8 8 8 9 9 11 13 14 13 13 13 12 9 8 11 14 18 22 23 18 13 10 10 12 9 5 4 4 6 12 14 11 8 8 7 7 13 16 12 9 10 12 12 10 10 11 9 8 8 8 7 7 7 8 7 4 4 7 9 9 6 4 5 6 6 6 5 7 13 17 18 15 9 8 7 8 12 16 18 8
10 10 9 7 8 10 9 9 9 8 9 11 14 14 15 17 17 14 9 6 3 2 3 4 6 11 17 22 22 16 11 11 12 11 7 5 4 6 10 11 10 11 11 8 13 19 20 17 13 11 12 12 10 10 9 7 6 7 7 8 7 8 9 6 5 5 7 9 8 5 4 6 6 5 3 2 4 8 13 16 15 12 8 7 8 10 13 13
9 9 9 8 8 9 9 9 8 9 10 10 12 15 17 18 18 16 12 7 3 1 0 3 5 6 8 13 19 22 18 12 11 12 8 7 7 3 6 13 10 4 5 6 9 11 15 25 31 24 14 8 8 11 10 8 6 5 5 5 6 9 8 5 4 5 5 6 8 7 6 6 5 4 4 3 2 4 8 11 14 13 10 11 11 7 6 9
9 9 9 10 9 9 9 9 9 10 10 8 8 13 18 18 16 16 15 12 10 8 7 8 9 9 10 10 11 17 22 18 14 13 10 7 6 3 3 10 12 13 17 17 14 8 1 7 26 37 31 15 4 6 11 11 9 7 6 5 6 7 8 5 2 2 5 6 7 8 8 8 7 5 5 5 4 4 4 6 10 10 10 13 13 11 10 10
10 9 9 9 9 9 9 9 9 9 9 8 9 14 19 19 13 10 12 14 14 14 14 15 15 16 18 15 12 12 16 20 18 15 14 9 3 -1 -5 -6 4 19 26 25 22 15 3 -3 3 18 33 31 17 8 8 9 11 9 6 7 8 7 7 6 5 3 4 6 6 6 7 8 10 9 7 7 6 5 3 4 5 5 6 9 10 9 9 11
9 9 9 8 8 9 9 10 10 8 6 7 12 17 21 20 14 11 12 11 9 13 20 24 23 24 24 22 21 15 13 19 20 17 18 19 17 12 -2 -11 1 14 9 1 0 -3 -8 -4 1 4 15 28 29 22 16 14 17 18 13 8 7 8 7 6 7 6 5 5 4 4 5 6 8 9 9 10 10 9 7 6 5 6 7 7 6 5 4 7
8 8 9 8 8 9 10 11 10 8 6 7 12 19 21 17 13 13 11 7 10 21 29 27 20 20 23 25 26 24 18 17 20 19 14 13 24 32 16 1 10 21 12 -2 -6 -7 -10 -1 11 8 2 10 19 21 20 18 20 27 29 19 7 5 6 5 6 6 5 4 3 2 3 3 3 5 7 10 11 11 9 8 7 8 8 6 5 6 7 9
Height
5742 5743 5744 5745 5746 5747 5747 5748 5749 5750 5751 5752 5754 5755 5756 5757 5758 5759 5760 5761 5762 5763 5764 5765 5766 5767 5768 5769 5770 5771 5772 5773 5774 5775 5776 5776 5777 5778 5779 5780 5780 5781 5782 5783 5784 5784 5785 5785 5786 5787 5788 5788 5789 5790 5790 5791 5791 5791 5791 5791 5791 5791 5792 5792 5793 5794 5794 5795 5797 5798 5798 5799 5801 5802 5803 5805 5806 5807 5808 5809 5811 5812 5813 5814 5815 5816 5817 5818
5739 5740 5741 5742 5742 5743 5744 5745 5746 5747 5748 5749 5750 5751 5752 5753 5755 5756 5757 5758 5759 5760 5760 5761 5762 5764 5765 5766 5767 5768 5769 5770 5771 5772 5772 5773 5774 5775 5776 5776 5777 5778 5779 5780 5780 5781 5781 5782 5783 5784 5785 5785 5786 5787 5787 5788 5788 5788 5788 5788 5788 5788 5789 5789 5790 5790 5791 5792 5794 5795 5795 5796 5798 5799 5801 5803 5803 5804 5806 5807 5808 5809 5810 5811 5812 5813 5814 5815
5736 5737 5738 5738 5739 5740 5741 5742 5743 5744 5745 5746 5747 5748 5749 5750 5751 5752 5753 5754 5756 5756 5757 5758 5759 5760 5761 5762 5763 5764 5766 5767 5768 5768 5769 5770 5770 5772 5772 5773 5774 5774 5776 5777 5777 5778 5778 5779 5780 5781 5782 5782 5783 5784 5784 5784 5785 5785 5784 5784 5785 5785 5785 5786 5787 5787 5788 5790 5791 5792 5793 5793 5795 5797 5798 5800 5801 5802 5804 5805 5805 5806 5807 5808 5809 5811 5812 5814
5732 5733 5734 5735 5736 5737 5738 5738 5739 5740 5741 5742 5744 5745 5746 5747 5748 5749 5750 5751 5752 5753 5754 5755 5756 5757 5758 5759 5760 5761 5762 5763 5764 5765 5766 5766 5767 5768 5769 5770 5771 5771 5772 5774 5774 5775 5775 5776 5777 5778 5779 5779 5779 5780 5781 5781 5782 5781 5781 5781 5782 5782 5783 5783 5784 5785 5786 5787 5788 5790 5790 5791 5792 5794 5796 5798 5800 5800 5801 5802 5802 5803 5804 5805 5807 5809 5810 5812
5729 5730 5731 5732 5732 5733 5734 5735 5736 5737 5738 5739 5740 5741 5742 5743 5744 5745 5746 5748 5749 5750 5751 5752 5753 5754 5755 5755 5757 5758 5759 5760 5761 5762 5762 5763 5764 5765 5766 5767 5767 5768 5769 5770 5771 5772 5772 5773 5774 5775 5775 5776 5776 5777 5778 5778 5779 5778 5777 5778 5779 5780 5780 5781 5782 5783 5783 5784 5785 5787 5788 5789 5791 5792 5794 5796 5797 5798 5799 5800 5800 5801 5802 5804 5806 5807 5809 5810
5726 5727 5728 5728 5729 5730 5731 5732 5733 5733 5734 5735 5737 5738 5739 5740 5741 5742 5743 5744 5745 5747 5748 5748 5749 5750 5751 5752 5753 5754 5755 5757 5758 5758 5759 5760 5761 5761 5763 5764 5764 5765 5766 5767 5768 5768 5769 5770 5770 5771 5772 5772 5773 5774 5775 5775 5776 5775 5775 5776 5776 5777 5778 5779 5780 5780 5780 5782 5783 5785 5786 5787 5789 5791 5793 5794 5795 5796 5797 5798 5799 5800 5801 5803 5805 5806 5808 5809
5723 5724 5724 5725 5726 5727 5728 5728 5729 5730 5731 5732 5733 5734 5735 5736 5737 5738 5739 5741 5742 5743 5744 5745 5746 5747 5748 5749 5750 5751 5752 5754 5754 5755 5756 5757 5758 5758 5759 5761 5761 5762 5763 5764 5765 5765 5766 5767 5767 5767 5768 5769 5770 5771 5772 5772 5772 5772 5772 5773 5774 5774 5776 5776 5777 5778 5779 5780 5781 5782 5784 5785 5787 5789 5790 5792 5793 5794 5795 5796 5797 5798 5800 5802 5804 5805 5806 5807
5719 5720 5721 5722 5723 5724 5724 5725 5726 5727 5728 5729 5730 5731 5732 5733 5734 5735 5736 5737 5738 5740 5741 5742 5743 5743 5744 5745 5746 5747 5749 5750 5751 5752 5753 5754 5755 5755 5756 5757 5758 5759 5760 5761 5762 5762 5763 5763 5764 5764 5765 5766 5767 5768 5769 5769 5769 5769 5770 5771 5771 5772 5773 5774 5775 5776 5777 5778 5779 5781 5782 5783 5784 5786 5788 5790 5792 5792 5793 5794 5795 5797 5799 5801 5802 5803 5804 5806
5716 5717 5718 5719 5720 5720 5721 5722 5722 5723 5724 5726 5727 5728 5729 5730 5731 5731 5732 5734 5735 5736 5737 5738 5739 5740 5741 5742 5743 5744 5746 5747 5748 5749 5750 5751 5752 5753 5753 5754 5755 5756 5757 5758 5759 5759 5760 5760 5761 5762 5763 5763 5764 5765 5766 5767 5766 5767 5767 5768 5769 5770 5771 5772 5773 5775 5776 5777 5778 5779 5780 5781 5782 5784 5786 5788 5790 5791 5792 5793 5794 5795 5797 5799 5800 5801 5803 5805
5713 5714 5715 5715 5716 5717 5717 5718 5719 5720 5721 5722 5723 5724 5726 5727 5727 5728 5729 5730 5732 5733 5734 5735 5736 5737 5738 5739 5740 5741 5742 5744 5745 5746 5747 5748 5749 5750 5750 5751 5752 5753 5754 5755 5756 5756 5757 5757 5758 5759 5759 5760 5761 5762 5763 5763 5763 5764 5765 5766 5767 5768 5769 5771 5772 5773 5774 5775 5776 5778 5778 5778 5779 5782 5784 5786 5788 5789 5790 5791 5792 5793 5795 5797 5798 5801 5803 5803
5709 5710 5711 5712 5712 5713 5714 5714 5715 5716 5717 5719 5720 5721 5722 5723 5724 5725 5726 5727 5729 5730 5731 5732 5733 5734 5735 5736 5737 5738 5739 5741 5741 5743 5744 5745 5746 5747 5747 5748 5749 5750 5752 5753 5753 5754 5754 5754 5755 5756 5756 5757 5758 5759 5760 5760 5761 5762 5763 5764 5764 5765 5767 5769 5770 5771 5771 5773 5775 5776 5776 5776 5777 5780 5782 5784 5786 5787 5788 5789 5790 5792 5793 5795 5797 5800 5800 5799
5706 5707 5708 5708 5709 5709 5710 5710 5711 5712 5713 5715 5716 5717 5719 5720 5721 5722 5723 5724 5726 5727 5728 5729 5730 5731 5732 5733 5734 5735 5737 5738 5739 5740 5741 5742 5743 5744 5745 5746 5747 5748 5749 5750 5750 5751 5751 5751 5752 5753 5753 5754 5755 5756 5757 5758 5758 5759 5760 5761 5762 5763 5764 5766 5768 5768 5769 5771 5772 5773 5774 5775 5775 5778 5780 5782 5783 5785 5786 5788 5789 5790 5792 5794 5796 5797 5797 5797
5702 5703 5704 5705 5705 5706 5706 5707 5707 5708 5709 5711 5712 5713 5715 5717 5718 5719 5720 5721 5723 5724 5725 5726 5727 5728 5729 5729 5731 5733 5734 5735 5736 5737 5738 5739 5740 5741 5742 5743 5744 5745 5746 5747 5747 5748 5748 5748 5749 5750 5750 5751 5752 5753 5754 5755 5755 5756 5757 5759 5760 5761 5762 5763 5764 5765 5767 5768 5769 5769 5771 5773 5774 5775 5777 5779 5781 5783 5784 5786 5787 5789 5790 5793 5795 5795 5795 5795
5698 5699 5700 5701 5702 5702 5702 5703 5704 5704 5705 5706 5708 5709 5711 5712 5714 5715 5717 5718 5720 5721 5722 5723 5725 5726 5727 5726 5728 5730 5731 5732 5733 5734 5735 5736 5736 5737 5738 5739 5740 5741 5743 5744 5744 5745 5745 5746 5746 5747 5747 5748 5749 5750 5751 5752 5753 5754 5755 5756 5757 5758 5759 5760 5761 5762 5764 5765 5765 5765 5767 5771 5772 5772 5774 5776 5778 5780 5782 5784 5785 5787 5789 5791 5793 5792 5792 5793
5695 5696 5697 5697 5698 5698 5699 5699 5700 5700 5701 5702 5704 5705 5707 5708 5710 5711 5713 5715 5717 5718 5719 5721 5722 5723 5724 5723 5724 5727 5728 5728 5729 5730 5731 5732 5732 5733 5734 5736 5737 5738 5739 5741 5741 5742 5742 5743 5743 5744 5745 5746 5747 5748 5749 5749 5750 5751 5752 5754 5755 5756 5757 5757 5758 5759 5761 5761 5762 5762 5764 5768 5770 5769 5771 5773 5775 5778 5780 5781 5783 5785 5786 5788 5791 5791 5791 5791
5691 5692 5693 5694 5694 5695 5695 5696 5696 5697 5697 5698 5700 5701 5703 5705 5706 5708 5710 5711 5713 5715 5716 5717 5718 5719 5720 5720 5720 5723 5724 5725 5725 5726 5727 5728 5728 5729 5731 5733 5734 5735 5736 5738 5738 5739 5739 5740 5740 5741 5742 5743 5744 5745 5746 5747 5748 5749 5750 5751 5753 5754 5755 5755 5755 5757 5758 5759 5759 5759 5761 5765 5768 5767 5768 5770 5772 5775 5777 5779 5780 5782 5784 5786 5789 5789 5789 5790
5687 5688 5689 5690 5691 5691 5692 5693 5693 5693 5694 5694 5696 5698 5700 5701 5703 5705 5706 5708 5709 5711 5712 5714 5714 5715 5716 5716 5717 5718 5720 5721 5722 5723 5723 5724 5725 5726 5728 5729 5730 5731 5733 5734 5735 5736 5736 5737 5738 5739 5740 5741 5741 5742 5743 5745 5746 5747 5748 5749 5750 5752 5753 5753 5753 5754 5755 5756 5757 5757 5759 5763 5766 5766 5766 5768 5770 5772 5774 5776 5778 5780 5782 5784 5787 5788 5788 5788
5683 5684 5685 5686 5687 5688 5688 5689 5690 5690 5690 5691 5692 5695 5697 5699 5700 5701 5703 5704 5705 5707 5708 5709 5710 5711 5712 5713 5714 5715 5716 5717 5719 5720 5720 5721 5722 5723 5724 5726 5727 5728 5730 5731 5732 5733 5733 5734 5735 5736 5737 5738 5739 5740 5741 5742 5743 5744 5745 5747 5748 5749 5750 5751 5751 5751 5752 5754 5754 5755 5756 5760 5762 5763 5764 5765 5767 5769 5771 5774 5776 5778 5780 5781 5784 5786 5787 5788
5680 5681 5682 5682 5683 5684 5685 5686 5686 5686 5687 5688 5689 5692 5694 5696 5697 5698 5699 5700 5701 5702 5704 5705 5707 5708 5709 5710 5711 5712 5713 5714 5715 5716 5717 5718 5719 5720 5721 5722 5724 5725 5727 5728 5729 5729 5730 5731 5732 5733 5735 5735 5736 5738 5739 5740 5740 5741 5742 5744 5746 5747 5748 5749 5749 5749 5749 5751 5751 5752 5753 5756 5759 5760 5762 5763 5764 5766 5768 5770 5773 5775 5777 5779 5782 5785 5786 5787
5676 5677 5678 5679 5679 5680 5681 5682 5683 5683 5683 5684 5686 5689 5691 5692 5693 5694 5695 5696 5697 5698 5700 5702 5704 5705 5706 5707 5707 5708 5709 5710 5711 5713 5714 5715 5716 5717 5718 5719 5721 5722 5723 5724 5725 5726 5727 5728 5729 5731 5732 5733 5734 5735 5736 5737 5737 5738 5740 5741 5743 5745 5746 5746 5746 5746 5747 5748 5749 5750 5750 5753 5756 5758 5760 5760 5761 5763 5765 5768 5771 5773 5775 5777 5779 5782 5784 5785
5672 5673 5674 5675 5676 5677 5678 5678 5679 5680 5680 5681 5683 5686 5688 5689 5690 5691 5692 5693 5693 5695 5697 5699 5701 5702 5702 5703 5703 5705 5705 5706 5708 5710 5711 5712 5713 5714 5715 5716 5717 5718 5719 5720 5722 5723 5724 5725 5727 5728 5729 5730 5731 5732 5733 5734 5735 5736 5737 5739 5741 5743 5744 5744 5744 5744 5744 5745 5748 5748 5748 5751 5754 5755 5757 5758 5759 5760 5763 5766 5769 5771 5773 5774 5775 5778 5781 5783
5668 5669 5670 5671 5672 5673 5674 5675 5675 5676 5677 5677 5679 5682 5684 5685 5686 5687 5689 5689 5690 5692 5694 5695 5697 5698 5699 5699 5700 5700 5701 5703 5705 5706 5707 5708 5709 5711 5712 5713 5713 5714 5715 5717 5718 5720 5721 5722 5723 5724 5725 5727 5728 5729 5730 5731 5732 5733 5735 5737 5739 5741 5741 5741 5742 5741 5741 5743 5746 5746 5746 5749 5752 5752 5753 5755 5757 5758 5761 5764 5766 5768 5769 5771 5772 5775 5778 5779
5664 5665 5666 5667 5668 5669 5670 5671 5672 5672 5673 5674 5676 5678 5680 5682 5683 5684 5685 5686 5686 5688 5690 5692 5694 5694 5695 5696 5696 5696 5698 5700 5702 5702 5704 5705 5706 5708 5708 5709 5710 5710 5711 5713 5715 5717 5718 5719 5720 5721 5723 5724 5725 5726 5727 5728 5729 5731 5733 5734 5737 5738 5738 5739 5739 5739 5738 5740 5743 5743 5743 5746 5749 5749 5750 5751 5754 5756 5758 5760 5762 5763 5766 5768 5769 5771 5774 5776
5660 5661 5662 5663 5665 5666 5666 5667 5668 5669 5669 5671 5673 5675 5676 5678 5679 5681 5682 5683 5683 5684 5686 5688 5690 5691 5691 5692 5693 5694 5695 5697 5698 5699 5701 5702 5703 5704 5705 5705 5706 5707 5709 5711 5712 5713 5714 5715 5716 5717 5719 5720 5721 5723 5724 5726 5728 5729 5730 5732 5734 5735 5736 5736 5736 5735 5735 5738 5740 5740 5740 5744 5746 5746 5746 5748 5750 5753 5755 5756 5758 5760 5763 5764 5766 5768 5771 5773
5656 5657 5658 5660 5661 5662 5663 5664 5664 5665 5666 5668 5669 5671 5673 5674 5676 5677 5679 5680 5680 5681 5682 5683 5686 5688 5688 5689 5690 5691 5691 5693 5696 5697 5698 5698 5699 5700 5701 5702 5703 5705 5707 5708 5709 5710 5711 5712 5713 5715 5716 5717 5719 5721 5723 5724 5726 5727 5729 5730 5731 5732 5732 5732 5732 5732 5733 5736 5737 5736 5738 5741 5743 5742 5743 5744 5747 5750 5751 5753 5755 5758 5759 5761 5763 5766 5769 5770
5652 5653 5655 5656 5657 5658 5659 5660 5661 5662 5663 5664 5666 5668 5669 5670 5672 5674 5675 5676 5677 5678 5678 5679 5681 5683 5685 5686 5687 5688 5688 5690 5692 5693 5694 5695 5696 5697 5698 5699 5701 5703 5704 5705 5706 5707 5708 5709 5711 5712 5713 5715 5717 5719 5721 5722 5724 5726 5726 5726 5727 5728 5729 5729 5729 5730 5731 5733 5734 5734 5736 5739 5740 5740 5740 5741 5744 5747 5748 5750 5752 5754 5756 5758 5761 5764 5766 5767
5649 5650 5651 5653 5653 5655 5656 5657 5658 5659 5660 5661 5663 5664 5665 5667 5668 5670 5671 5673 5674 5675 5676 5676 5677 5679 5681 5683 5684 5684 5685 5687 5689 5690 5691 5691 5692 5694 5694 5696 5699 5700 5701 5702 5703 5705 5706 5707 5708 5709 5711 5713 5715 5718 5719 5720 5721 5723 5723 5723 5724 5725 5725 5725 5726 5728 5729 5730 5732 5733 5734 5736 5738 5739 5739 5739 5741 5744 5746 5748 5749 5751 5754 5756 5759 5761 5763 5765
5645 5646 5648 5649 5650 5651 5653 5654 5655 5656 5657 5658 5659 5660 5662 5663 5665 5666 5667 5669 5670 5672 5673 5673 5674 5675 5677 5679 5680 5681 5682 5683 5685 5687 5687 5688 5689 5690 5691 5694 5696 5697 5697 5698 5700 5702 5703 5704 5704 5706 5708 5710 5714 5715 5716 5717 5719 5720 5720 5721 5722 5723 5723 5723 5724 5726 5727 5728 5730 5732 5733 5734 5736 5737 5737 5738 5739 5741 5743 5745 5747 5749 5751 5753 5756 5758 5760 5762
5642 5643 5644 5646 5647 5648 5649 5651 5652 5653 5654 5655 5656 5657 5658 5660 5661 5662 5664 5665 5666 5668 5669 5670 5671 5672 5674 5675 5677 5678 5679 5680 5682 5683 5684 5685 5686 5688 5689 5691 5692 5693 5694 5695 5697 5699 5699 5700 5701 5703 5705 5709 5712 5712 5713 5716 5717 5717 5718 5719 5720 5721 5722 5722 5723 5725 5725 5727 5730 5731 5730 5731 5734 5735 5736 5737 5738 5739 5740 5742 5744 5746 5748 5750 5753 5755 5757 5760
5639 5640 5641 5643 5644 5645 5646 5648 5649 5650 5651 5652 5653 5654 5655 5656 5658 5659 5660 5661 5663 5665 5666 5666 5667 5669 5671 5672 5674 5675 5676 5677 5678 5680 5681 5682 5684 5685 5686 5688 5689 5690 5691 5693 5695 5696 5697 5698 5699 5702 5705 5708 5709 5709 5712 5714 5714 5715 5717 5718 5718 5719 5720 5720 5722 5723 5723 5726 5730 5729 5728 5729 5731 5733 5734 5735 5736 5737 5738 5739 5741 5744 5746 5748 5750 5752 5755 5756
5636 5637 5639 5640 5641 5642 5643 5645 5646 5647 5648 5649 5650 5651 5652 5653 5654 5656 5657 5658 5659 5661 5662 5663 5664 5666 5668 5670 5671 5672 5673 5674 5675 5676 5677 5679 5681 5682 5683 5685 5686 5687 5689 5692 5694 5695 5695 5696 5698 5701 5704 5706 5707 5708 5710 5711 5712 5714 5715 5715 5716 5717 5718 5719 5720 5721 5722 5726 5728 5726 5725 5727 5729 5731 5732 5733 5734 5736 5737 5738 5740 5742 5744 5746 5748 5750 5752 5753
5633 5635 5636 5637 5639 5640 5640 5641 5643 5644 5645 5646 5646 5647 5649 5650 5651 5653 5654 5655 5656 5657 5658 5660 5662 5663 5665 5667 5668 5669 5670 5671 5672 5674 5675 5677 5678 5680 5681 5683 5685 5686 5688 5691 5693 5693 5693 5694 5696 5699 5701 5703 5704 5706 5708 5710 5711 5711 5712 5713 5714 5715 5716 5717 5718 5719 5721 5724 5724 5723 5723 5724 5727 5729 5729 5731 5733 5735 5736 5737 5739 5741 5743 5745 5746 5748 5750 5752
5631 5632 5633 5635 5636 5637 5637 5638 5640 5641 5642 5643 5643 5644 5645 5647 5649 5650 5651 5652 5653 5654 5656 5658 5659 5660 5662 5664 5665 5666 5667 5668 5670 5671 5672 5673 5675 5677 5678 5680 5682 5683 5685 5689 5690 5689 5690 5692 5694 5697 5699 5701 5702 5704 5706 5707 5708 5708 5709 5710 5711 5712 5714 5715 5716 5717 5719 5720 5720 5720 5720 5722 5725 5726 5727 5729 5731 5733 5735 5736 5738 5740 5741 5743 5744 5746 5748 5750
5628 5629 5631 5632 5633 5634 5635 5636 5637 5638 5639 5640 5640 5641 5643 5644 5646 5647 5648 5649 5650 5651 5653 5655 5656 5658 5659 5661 5661 5662 5664 5666 5667 5668 5669 5671 5672 5674 5675 5677 5678 5680 5683 5686 5687 5687 5688 5690 5692 5695 5697 5699 5701 5703 5704 5704 5704 5706 5707 5708 5709 5711 5712 5713 5713 5715 5716 5717 5717 5718 5719 5720 5723 5724 5725 5728 5729 5731 5733 5734 5736 5738 5740 5741 5743 5745 5746 5748
5626 5627 5628 5630 5631 5631 5632 5633 5634 5635 5636 5637 5638 5639 5640 5641 5643 5644 5645 5647 5648 5650 5651 5652 5653 5654 5656 5657 5659 5659 5661 5663 5665 5666 5667 5668 5670 5672 5673 5675 5677 5678 5681 5683 5685 5686 5687 5688 5691 5693 5695 5697 5699 5700 5700 5701 5702 5704 5704 5706 5709 5710 5710 5711 5711 5712 5713 5714 5714 5716 5717 5719 5720 5722 5724 5726 5727 5729 5731 5732 5734 5736 5737 5739 5741 5743 5744 5746
5623 5625 5626 5627 5628 5629 5630 5630 5631 5633 5634 5635 5636 5637 5638 5638 5640 5642 5643 5644 5646 5647 5648 5649 5650 5651 5653 5655 5656 5657 5659 5660 5662 5664 5665 5667 5668 5670 5671 5673 5674 5676 5678 5680 5682 5684 5685 5687 5689 5691 5693 5694 5695 5696 5697 5699 5701 5702 5703 5706 5707 5708 5708 5709 5709 5710 5711 5711 5712 5714 5716 5717 5718 5720 5722 5724 5725 5727 5728 5730 5732 5733 5735 5737 5740 5741 5743 5744
5621 5622 5624 5625 5626 5627 5627 5628 5629 5630 5631 5632 5633 5634 5635 5636 5637 5639 5640 5642 5643 5644 5645 5646 5647 5649 5650 5651 5653 5655 5656 5658 5659 5661 5663 5664 5666 5668 5670 5671 5672 5674 5675 5678 5679 5680 5682 5684 5686 5688 5690 5691 5692 5694 5695 5696 5698 5700 5702 5704 5705 5705 5706 5707 5708 5708 5709 5709 5710 5711 5713 5715 5716 5718 5720 5722 5724 5725 5726 5728 5729 5731 5734 5736 5738 5740 5741 5742
5619 5620 5621 5622 5624 5624 5625 5626 5627 5628 5629 5630 5631 5632 5632 5634 5635 5636 5638 5639 5640 5641 5642 5643 5644 5646 5647 5648 5650 5652 5654 5655 5656 5658 5660 5662 5664 5667 5669 5670 5671 5672 5674 5675 5677 5678 5680 5682 5683 5686 5687 5688 5690 5691 5693 5694 5696 5698 5700 5701 5702 5703 5704 5705 5706 5706 5707 5707 5708 5709 5711 5712 5714 5717 5719 5720 5722 5723 5724 5725 5727 5729 5731 5734 5736 5737 5738 5740
5617 5618 5619 5620 5621 5622 5623 5624 5624 5625 5627 5628 5629 5630 5630 5631 5632 5634 5635 5637 5638 5639 5640 5641 5642 5643 5644 5645 5647 5649 5651 5652 5654 5656 5658 5660 5662 5664 5666 5668 5669 5670 5672 5673 5675 5676 5679 5681 5682 5683 5685 5686 5688 5689 5691 5692 5694 5696 5698 5699 5700 5701 5702 5703 5703 5705 5705 5706 5706 5708 5709 5711 5713 5715 5717 5718 5719 5721 5722 5723 5724 5726 5728 5731 5732 5733 5734 5736
5615 5616 5617 5618 5619 5620 5621 5622 5623 5624 5625 5626 5627 5627 5628 5629 5630 5631 5633 5634 5635 5636 5637 5638 5639 5640 5641 5642 5643 5645 5648 5650 5651 5653 5655 5657 5659 5662 5663 5665 5666 5668 5669 5671 5673 5675 5677 5679 5680 5681 5683 5684 5685 5687 5689 5690 5692 5694 5695 5696 5697 5699 5700 5701 5702 5702 5703 5704 5705 5706 5707 5709 5711 5713 5714 5715 5717 5719 5720 5721 5722 5723 5725 5727 5728 5730 5731 5732
5614 5614 5615 5616 5617 5618 5619 5620 5621 5622 5623 5623 5624 5625 5626 5627 5628 5629 5630 5631 5632 5633 5634 5635 5636 5637 5638 5640 5641 5642 5644 5646 5648 5650 5652 5654 5657 5659 5660 5662 5663 5665 5666 5668 5670 5672 5674 5677 5678 5679 5680 5682 5683 5684 5686 5688 5690 5691 5693 5694 5695 5697 5698 5699 5700 5701 5701 5702 5703 5704 5706 5707 5709 5710 5711 5712 5714 5716 5717 5718 5719 5721 5722 5723 5724 5726 5727 5728
5612 5613 5613 5614 5615 5616 5617 5618 5619 5620 5621 5622 5622 5623 5624 5624 5625 5626 5627 5628 5629 5630 5631 5632 5633 5635 5636 5637 5638 5639 5641 5643 5645 5647 5649 5651 5654 5656 5657 5659 5661 5663 5664 5666 5668 5670 5672 5674 5676 5676 5677 5679 5680 5682 5683 5686 5687 5689 5690 5691 5693 5694 5695 5696 5697 5699 5700 5701 5702 5703 5704 5706 5707 5708 5709 5710 5712 5713 5714 5715 5717 5718 5719 5720 5721 5722 5723 5723
5610 5611 5612 5613 5614 5615 5616 5617 5617 5618 5619 5620 5621 5621 5622 5622 5622 5623 5624 5625 5626 5627 5628 5629 5630 5632 5633 5634 5635 5637 5638 5640 5642 5644 5646 5648 5651 5653 5655 5657 5659 5660 5662 5664 5665 5667 5669 5671 5673 5674 5675 5677 5678 5679 5681 5683 5685 5686 5688 5689 5690 5692 5693 5694 5695 5696 5697 5698 5700 5701 5702 5704 5705 5706 5707 5708 5709 5710 5712 5713 5715 5716 5717 5717 5717 5718 5719 5718
5609 5610 5611 5612 5612 5613 5614 5615 5616 5617 5618 5618 5619 5619 5619 5620 5620 5620 5621 5622 5623 5624 5625 5625 5627 5628 5630 5631 5633 5634 5635 5637 5639 5641 5643 5645 5648 5650 5652 5654 5656 5658 5660 5661 5663 5664 5666 5669 5670 5672 5673 5674 5675 5676 5678 5680 5682 5684 5685 5687 5688 5690 5691 5692 5693 5694 5695 5696 5697 5698 5700 5702 5703 5704 5705 5707 5707 5708 5710 5711 5712 5713 5714 5714 5714 5715 5715 5714
5608 5609 5610 5611 5611 5612 5613 5614 5614 5615 5616 5616 5616 5617 5617 5617 5617 5617 5618 5619 5620 5621 5621 5622 5623 5624 5626 5627 5629 5631 5632 5634 5637 5638 5640 5642 5645 5647 5649 5651 5654 5656 5657 5659 5660 5662 5664 5666 5668 5669 5670 5671 5672 5674 5676 5678 5680 5681 5683 5684 5686 5687 5689 5690 5691 5692 5693 5694 5695 5696 5698 5700 5701 5702 5703 5704 5705 5706 5707 5709 5710 5711 5712 5712 5712 5712 5712 5711
5607 5608 5609 5610 5610 5611 5611 5612 5612 5613 5613 5614 5614 5614 5614 5614 5614 5615 5615 5616 5617 5618 5619 5619 5620 5621 5622 5624 5626 5628 5629 5631 5634 5635 5637 5640 5642 5644 5646 5648 5651 5653 5655 5656 5658 5660 5661 5662 5664 5666 5667 5668 5670 5671 5674 5676 5677 5679 5680 5682 5683 5685 5686 5688 5689 5690 5691 5692 5693 5694 5696 5697 5698 5699 5701 5702 5703 5704 5705 5706 5707 5708 5709 5709 5709 5709 5709 5709
5606 5607 5608 5608 5609 5609 5610 5610 5611 5611 5611 5611 5611 5611 5611 5611 5611 5612 5612 5613 5614 5615 5616 5617 5617 5618 5619 5620 5622 5624 5626 5628 5630 5633 5635 5637 5640 5642 5644 5645 5647 5649 5651 5653 5655 5657 5658 5658 5660 5662 5664 5665 5667 5669 5671 5673 5674 5676 5678 5679 5681 5683 5684 5685 5686 5688 5689 5690 5691 5692 5693 5695 5696 5697 5699 5700 5701 5702 5703 5703 5704 5705 5706 5706 5706 5706 5706 5706
5605 5606 5606 5607 5608 5608 5609 5609 5609 5610 5610 5609 5609 5609 5608 5608 5608 5609 5609 5610 5611 5612 5613 5613 5614 5615 5616 5617 5618 5620 5623 5625 5627 5629 5632 5634 5637 5639 5641 5642 5644 5646 5648 5650 5652 5654 5654 5655 5657 5659 5660 5662 5664 5666 5668 5669 5671 5673 5675 5676 5678 5680 5681 5682 5684 5685 5686 5687 5688 5689 5691 5692 5694 5695 5696 5697 5699 5700 5700 5701 5702 5703 5704 5704 5704 5704 5705 5705
5604 5605 5605 5606 5606 5607 5607 5608 5608 5608 5608 5607 5607 5606 5606 5606 5606 5606 5607 5607 5608 5609 5609 5610 5610 5611 5612 5613 5615 5616 5618 5621 5623 5626 5628 5631 5634 5636 5639 5641 5642 5644 5645 5646 5648 5650 5652 5653 5654 5656 5657 5659 5661 5663 5664 5666 5668 5670 5671 5673 5674 5676 5678 5679 5681 5682 5684 5685 5686 5687 5688 5690 5691 5693 5694 5695 5696 5697 5698 5699 5700 5701 5701 5702 5702 5702 5703 5703
5603 5604 5604 5605 5605 5606 5606 5606 5606 5606 5606 5605 5605 5604 5604 5604 5604 5604 5605 5605 5605 5606 5606 5606 5606 5607 5608 5609 5610 5612 5614 5616 5619 5622 5625 5629 5631 5633 5636 5638 5640 5641 5642 5643 5645 5647 5649 5651 5652 5653 5654 5656 5657 5659 5661 5662 5664 5666 5667 5669 5671 5673 5674 5676 5678 5679 5681 5682 5683 5684 5685 5687 5688 5690 5691 5692 5693 5694 5695 5696 5697 5698 5699 5700 5700 5700 5701 5701
5602 5603 5603 5604 5604 5604 5605 5605 5605 5605 5604 5604 5603 5602 5602 5602 5602 5602 5602 5602 5602 5602 5602 5602 5602 5603 5604 5604 5606 5608 5610 5613 5615 5619 5622 5626 5628 5631 5633 5636 5638 5639 5639 5641 5643 5644 5646 5648 5650 5651 5652 5653 5654 5655 5657 5659 5660 5662 5664 5665 5667 5669 5671 5673 5675 5676 5678 5679 5680 5681 5682 5684 5685 5686 5688 5689 5690 5691 5693 5694 5695 5696 5697 5698 5698 5698 5699 5700
5601 5602 5602 5603 5603 5603 5604 5604 5604 5603 5603 5602 5601 5601 5600 5600 5600 5600 5600 5600 5599 5599 5598 5598 5598 5599 5599 5600 5601 5604 5607 5609 5612 5615 5619 5622 5625 5628 5630 5633 5637 5637 5636 5638 5640 5642 5643 5645 5647 5648 5649 5650 5651 5652 5654 5655 5656 5658 5659 5662 5664 5666 5667 5669 5671 5673 5674 5675 5676 5678 5679 5681 5682 5683 5685 5686 5687 5688 5689 5691 5692 5693 5694 5695 5696 5696 5697 5698